[[{"header":{"parameterUnit":"m.s-1","parameterCategory":1,"la1":30.2992,"la2":30.254,"lo1":-89.0895,"lo2":-89.0443,"dy":0.0025,"dx":0.0025,"nx":19,"ny":19,"refTime":"2026-03-10T09:00:00:Z","depth":0,"parameterNumber":2,"parameterNumberName":"U-component_of_WINDS"},"data":[0,0,0,-2.7608,-2.7608,-2.7594,-2.7594,-2.7591,-2.7591,0,0,0,0,0,0,0,0,0,0,0,-2.7621,-2.7621,-2.7608,-2.7608,-2.7594,-2.7594,-2.7591,-2.7591,0,0,0,0,0,0,0,0,0,0,0,-2.7621,-2.7621,-2.7621,-2.7608,-2.7595,-2.7594,-2.7591,-2.7596,0,0,0,0,0,0,0,0,0,0,-2.7607,-2.7627,-2.7621,-2.7621,-2.7608,-2.7595,-2.7594,-2.7596,-2.7596,-2.7603,0,-2.7612,0,-2.7601,-2.7591,-2.7592,0,0,0,-2.7602,-2.7627,-2.7616,-2.7621,-2.7608,-2.7595,-2.7599,-2.7596,-2.7595,-2.7603,-2.7611,-2.7611,-2.7601,-2.7592,-2.7592,-2.7654,-2.7655,0,0,-2.7603,-2.7623,-2.7616,-2.7616,-2.7619,-2.7599,-2.7599,-2.7595,-2.7606,-2.7611,-2.7611,-2.7601,-2.7592,-2.7592,-2.7654,-2.7655,0,0,0,-2.7609,-2.7624,-2.7612,-2.7617,-2.7613,-2.7599,-2.7598,-2.7606,-2.7601,-2.761,-2.7601,-2.7592,-2.7592,-2.7653,-2.7654,-2.7702,0,0,0,-2.7609,-2.7627,-2.7613,-2.7625,-2.7613,-2.761,-2.761,-2.7601,-2.76,-2.7601,-2.7592,-2.7592,-2.7652,-2.7654,-2.7699,-2.7721,0,0,0,-2.7619,-2.7628,-2.7629,-2.7626,-2.7621,-2.7609,-2.7603,-2.76,-2.7595,-2.7592,-2.7592,-2.7652,-2.7653,-2.7697,-2.7717,-2.7743,0,0,0,-2.7635,-2.7672,-2.763,-2.7669,-2.7621,-2.7639,-2.7603,-2.7616,-2.7619,-2.7592,-2.7653,-2.7654,-2.7696,-2.7714,-2.774,-2.7768,-2.7781,0,0,-2.7693,-2.768,-2.7701,-2.7663,-2.7694,-2.764,-2.7678,-2.7661,-2.7643,-2.7652,-2.7653,-2.77,-2.7717,-2.7742,-2.7852,-2.7863,0,0,0,-2.7726,-2.7742,-2.7746,-2.7749,-2.7738,-2.773,-2.7706,-2.77,-2.7707,-2.7651,-2.7717,-2.7726,-2.774,-2.7752,-2.7761,-2.7772,-2.7661,-2.7661,-2.766,-2.7837,-2.7812,-2.7845,-2.7818,-2.7822,-2.7798,-2.7799,-2.7786,-2.7759,-2.7775,-2.7777,-2.7847,-2.7862,-2.7868,-2.788,-2.7791,-2.7791,-2.7791,-2.7791,-2.792,-2.7937,-2.7901,-2.792,-2.7893,-2.7908,-2.7886,-2.7867,-2.7877,-2.7843,-2.7854,-2.7818,-2.7881,-2.789,-2.7794,-2.7794,-2.7793,-2.7793,-2.7793,-2.7988,-2.7992,-2.7985,-2.7988,-2.7993,-2.7965,-2.7977,-2.7953,-2.7929,-2.7941,-2.794,-2.7939,-2.7934,-2.7942,-2.7942,-2.7943,-2.7943,-2.7943,-2.7943,-2.8062,-2.8052,-2.8065,-2.8057,-2.8056,-2.8052,-2.8029,-2.8028,-2.802,-2.8001,-2.8001,-2.7972,-2.7892,-2.7872,-2.7947,-2.7946,-2.7946,-2.7945,-2.7945,-2.8152,-2.8128,-2.8148,-2.8148,-2.8136,-2.8144,-2.8113,-2.8112,-2.8108,-2.8115,-2.8084,-2.803,-2.8014,-2.8006,-2.7989,-2.809,-2.809,-2.809,-2.809,-2.8209,-2.82,-2.8214,-2.8215,-2.8214,-2.8188,-2.8211,-2.8194,-2.8172,-2.8168,-2.815,-2.8126,-2.8119,-2.8108,-2.8098,-2.8081,-2.8203,-2.8203,-2.8203,-2.8263,-2.8252,-2.8277,-2.8255,-2.8245,-2.8237,-2.8258,-2.826,-2.8231,-2.8207,-2.8163,-2.8159,-2.812,-2.8108,-2.8082,-2.8068,-2.8037,0,0]},{"header":{"parameterUnit":"m.s-1","parameterCategory":1,"la1":30.2992,"la2":30.254,"lo1":-89.0895,"lo2":-89.0443,"dy":0.0025,"dx":0.0025,"nx":19,"ny":19,"refTime":"2026-03-10T09:00:00:Z","depth":0,"parameterNumber":3,"parameterNumberName":"V-component_of_WINDS"},"data":[0,0,0,2.7772,2.7774,2.7876,2.7877,2.7999,2.8,0,0,0,0,0,0,0,0,0,0,0,2.7735,2.7735,2.7772,2.7774,2.7876,2.7877,2.7999,2.8,0,0,0,0,0,0,0,0,0,0,0,2.7734,2.7735,2.7736,2.7775,2.7876,2.7877,2.7999,2.7925,0,0,0,0,0,0,0,0,0,0,2.7827,2.7785,2.7735,2.7736,2.7775,2.7876,2.7877,2.7922,2.793,2.7949,0,2.7962,0,2.7983,2.8007,2.8008,0,0,0,2.778,2.7778,2.7813,2.7736,2.7776,2.7876,2.7832,2.7926,2.7935,2.7959,2.7964,2.7968,2.7985,2.8008,2.8009,2.8096,2.8097,0,0,2.7774,2.7749,2.7806,2.7818,2.7799,2.7829,2.7835,2.7932,2.7936,2.7964,2.7971,2.7987,2.8009,2.801,2.8096,2.8097,0,0,0,2.7754,2.7745,2.7777,2.7813,2.7832,2.7831,2.7839,2.7931,2.7944,2.7973,2.7988,2.801,2.8011,2.8096,2.8096,2.808,0,0,0,2.7751,2.7734,2.7774,2.776,2.7829,2.7882,2.7836,2.7937,2.7949,2.7988,2.801,2.8012,2.8096,2.8096,2.808,2.8076,0,0,0,2.7731,2.7731,2.7743,2.7759,2.7801,2.7881,2.7899,2.794,2.7958,2.8008,2.8012,2.8096,2.8096,2.808,2.8076,2.8093,0,0,0,2.7701,2.7726,2.7743,2.7777,2.78,2.7869,2.7899,2.7952,2.7993,2.801,2.8096,2.8096,2.808,2.8076,2.8093,2.8103,2.8105,0,0,2.7719,2.7727,2.7749,2.7767,2.7827,2.7856,2.7914,2.7975,2.8003,2.8064,2.8067,2.808,2.8076,2.8093,2.812,2.8121,0,0,0,2.7746,2.7762,2.7783,2.7821,2.7868,2.791,2.7964,2.7988,2.8041,2.8029,2.8091,2.8089,2.81,2.8106,2.8107,2.8119,2.8098,2.8098,2.8098,2.7735,2.777,2.781,2.7857,2.7894,2.7951,2.7985,2.8027,2.8051,2.8065,2.8083,2.8095,2.8102,2.8102,2.8115,2.8091,2.8091,2.8091,2.8091,2.7764,2.7793,2.7826,2.7876,2.7914,2.7957,2.8016,2.8032,2.8079,2.8084,2.8095,2.8098,2.8102,2.8115,2.809,2.809,2.809,2.809,2.809,2.7761,2.7781,2.7809,2.7869,2.7911,2.796,2.8005,2.8038,2.8069,2.808,2.8105,2.8105,2.8111,2.8089,2.8089,2.809,2.809,2.809,2.809,2.7746,2.7779,2.7812,2.7866,2.7896,2.794,2.8,2.8032,2.8075,2.8096,2.8096,2.812,2.8096,2.8089,2.809,2.809,2.809,2.809,2.809,2.7764,2.7766,2.7816,2.7847,2.7915,2.7957,2.7999,2.8061,2.8091,2.8113,2.8136,2.8112,2.8123,2.8123,2.8118,2.8127,2.8127,2.8127,2.8127,2.7762,2.7771,2.7832,2.7879,2.7928,2.7972,2.8032,2.8081,2.8132,2.8154,2.8158,2.8154,2.8152,2.8165,2.8163,2.816,2.8178,2.8178,2.8179,2.7776,2.7792,2.7835,2.7884,2.7941,2.799,2.8048,2.8103,2.8161,2.8181,2.8172,2.817,2.8165,2.8161,2.818,2.8178,2.8171,0,0]}]]